Location: San Antonio de Areco
(34.2500°S, 59.4670°W)
Time: 10:04:58
(UTC-03:00)

ISS - Visible Passes

Search period start: 28 August 2014 00:00
Search period end: 07 September 2014 00:00
Orbit: 414 x 419 km, 51.6° (Epoch: 27 August)

Date Brightness Start Highest point End Pass type
(mag) Time Alt. Az. Time Alt. Az. Time Alt. Az.
28 Aug -2.0 06:34:25 10° SSW 06:37:40 40° SE 06:40:53 10° ENE visible
29 Aug -1.2 05:47:29 17° S 05:49:06 24° SE 05:51:56 10° E visible
30 Aug -0.2 05:01:20 15° SE 05:01:20 15° SE 05:02:37 10° ESE visible
30 Aug -3.1 06:34:15 11° SW 06:37:25 57° NW 06:40:44 10° NNE visible
31 Aug -3.1 05:48:11 50° SSW 05:48:54 71° SE 05:52:16 10° NE visible
01 Sep -0.5 05:02:14 19° E 05:02:14 19° E 05:03:26 10° ENE visible
01 Sep -1.5 06:35:10 13° W 06:36:46 17° NW 06:39:01 10° N visible
02 Sep -1.8 05:49:20 26° NNW 05:49:20 26° NNW 05:51:19 10° NNE visible
03 Sep -1.4 19:59:57 10° N 20:01:29 19° NNE 20:01:29 19° NNE visible
04 Sep -1.1 19:12:38 10° NNE 19:14:08 13° NE 19:15:39 10° E visible
04 Sep -0.9 20:47:13 10° WNW 20:48:40 23° WNW 20:48:40 23° WNW visible
05 Sep -3.4 19:58:20 10° NW 20:01:42 84° NE 20:02:45 42° SE visible
06 Sep -2.7 19:09:45 10° NNW 19:12:55 40° NE 19:16:08 10° ESE visible
06 Sep -0.7 20:47:14 10° W 20:49:33 19° SW 20:49:33 19° SW visible
